Tracking 27188 objects as of 2-Apr-2023
HD Live streaming from Space Station
objects crossing your sky now

STARLINK-2645

Track STARLINK-2645 now!
10-day predictions
STARLINK-2645 is classified as:


NORAD ID: 48444
Int'l Code: 2021-040S
Perigee: 553.8 km
Apogee: 554.7 km
Inclination: 53.1 °
Period: 95.6 minutes
Semi major axis: 6925 km
RCS: Unknown
Launch date: May 9, 2021
Source: United States (US)
Launch site: AIR FORCE EASTERN TEST RANGE (AFETR)
Your satellite tracking list
Your tracking list is empty




NASA's NSSDC Master Catalog

Two Line Element Set (TLE):
1 48444U 21040S   23091.77086503  .00021641  00000-0  14659-2 0  9993
2 48444  53.0553 318.1369 0000599  41.5927 318.5108 15.06435232106193
Source of the keplerian elements: AFSPC